Regional Weather Roundup
Issued by NWS

Home | Current Version | Previous Version | Text Only | Print | Product List | Glossary Off
Versions: 1 2 3 4 5 6 7 8 9 10 11 12 13 14 15 16 17 18 19 20 21 22 23 24 25 26 27

000
ASUS45 KBOU 272207
RWRCO

WEATHER ROUNDUP FOR COLORADO
NATIONAL WEATHER SERVICE DENVER/BOULDER CO
400 PM MDT WED APR 27 2016

NOTE: "FAIR" INDICATES FEW OR NO CLOUDS BELOW 12000 FEET WITH NO
SIGNIFICANT WEATHER AND/OR OBSTRUCTIONS TO VISIBILITY.

COZ001>005-013-030-031-272300-
...NORTHWEST COLORADO...

CITY           SKY/WX    TMP DP  RH WIND       PRES   REMARKS
CRAIG          CLOUDY    51  30  44 NW8G18    29.82F
HAYDEN         FAIR      43  34  70 N16       29.84R
MEEKER         PTSUNNY   53  30  41 S12       29.81F
MOUNT WERNER   NOT AVBL
STEAMBOAT SPGS PTSUNNY   45  32  61 S6        29.83F
WALDEN         CLOUDY    34  28  80 N7        29.86S WCI  28
$$

COZ006>008-011-272300-
...WEST CENTRAL VALLEYS...

CITY           SKY/WX    TMP DP  RH WIND       PRES   REMARKS
GRAND JUNCTION PTSUNNY   58  36  43 VRB3      29.78F
MONTROSE       PTSUNNY   55  33  43 NW7       29.82F
EAGLE          PTSUNNY   52  25  35 SW20G25   29.83F
RIFLE          FAIR      53  33  46 CALM      29.82F
DELTA          NOT AVBL
NUCLA          NOT AVBL
$$

COZ017>023-064>068-272300-
...SOUTHWEST COLORADO...

CITY           SKY/WX    TMP DP  RH WIND       PRES   REMARKS
DURANGO        PTSUNNY   58  24  27 SW14      29.81F
CORTEZ         PTSUNNY   60  25  26 W15G22    29.80F
PAGOSA SPRINGS CLOUDY    54  21  27 SW10G24   29.85S
TELLURIDE      CLOUDY    43  27  54 W10G16    29.90F
WOLF CREEK PAS NOT AVBL
$$

COZ009-010-012-014-032>034-037-058>063-272300-
...CENTRAL COLORADO...

CITY           SKY/WX    TMP DP  RH WIND       PRES   REMARKS
ASPEN          PTSUNNY   46  26  45 N6        29.83F
BUENA VISTA    CLOUDY    51  15  23 NW10G20   29.80S
COPPER MTN     NOT AVBL
BERTHOUD PASS  CLOUDY    21  10  63 NW25G33   29.88S WCI   4
COTTONWOOD PAS CLOUDY    45  10  24 CALM      29.86S
GUNNISON       PTSUNNY   50  21  32 W14G21    29.85F
KREMMLING      CLOUDY    43  23  45 W12G22    29.85F
LEADVILLE      CLOUDY    37  19  48 SW12G29   29.87S
MONARCH PASS   FAIR      28  19  69 W41G47    30.01F WCI  11
SALIDA         FAIR      55  17  22 W13G23    29.87S
SUNLIGHT       SNOW      32  30  93 CALM      29.95F VSB<1/4
WILKERSON PASS CLOUDY    34  14  44 W9        29.92S WCI  26
$$

COZ069>075-272300-
...SAN LUIS VALLEY/SANGRE DE CRISTO MOUNTAINS...

CITY           SKY/WX    TMP DP  RH WIND       PRES   REMARKS
ALAMOSA        CLOUDY    56  17  21 E8        29.78F
LA VETA PASS   FAIR      43  18  36 S5        29.89F
SAGUACHE       FAIR      54  18  24 N14G28    29.80S
$$

COZ035-036-038>040-272300-
...NORTHERN COLORADO FRONT RANGE...

CITY           SKY/WX    TMP DP  RH WIND       PRES   REMARKS
DENVER INTL AP FAIR      52  28  39 NE9       29.78F
DMNS CITY PARK   N/A     52  30  42 E8G18     29.77S
AURORA         FAIR      53  30  41 N7        29.78F
FRONT RANGE AP PTSUNNY   50  30  46 N17       29.79F
ERIE MUNI ARPT FAIR      54  30  39 NE7       29.77F
BOULDER MUN AP PTSUNNY   54  32  43 E8        29.76F
CENTENNIAL     FAIR      52  29  41 CALM      29.77F
BROOMFIELD     PTSUNNY   54  30  40 E10       29.78F
FORT COLLINS   FAIR      52  34  50 CALM      29.78F
LONGMONT       FAIR      58  33  39 SE8       29.79S
$$

COZ041-046-047-076>085-087-088-272300-
...PIKES PEAK/PALMER DIVIDE AND SOUTHERN FOOTHILLS...

CITY           SKY/WX    TMP DP  RH WIND       PRES   REMARKS
COLO. SPRINGS  LGT RAIN  50  28  42 CALM      29.79F
A. F. ACADEMY  MOSUNNY   54  27  35 S12G17    29.78F
SCHRIEVER AFB  NOT AVBL
ELLICOTT       NOT AVBL
FALCON         CLOUDY    47  30  50 E8        29.82S
FORT CARSON    MOSUNNY   57  28  33 VRB3      29.76F
LIMON          PTSUNNY   53  28  38 N18G28    29.79R
MONUMENT HILL  PTSUNNY   45  28  53 CALM      29.82S
TRINIDAD       FAIR      63  26  24 SE8G16    29.73F
$$

COZ042>045-048>051-090-091-272300-
...NORTHEAST COLORADO...

CITY           SKY/WX    TMP DP  RH WIND       PRES   REMARKS
GREELEY ARPT   PTSUNNY   55  30  38 NW13G22   29.78F
AKRON          FAIR      53  26  35 NW30G36   29.76F
BURLINGTON     FAIR      57  28  33 NW25G37   29.74F
WRAY           NOT AVBL
STERLING       FAIR      54  30  40 N26G32    29.76R
HOLYOKE        NOT AVBL
FORT MORGAN    FAIR      54  25  33 NW25G32   29.79S
$$

COZ086-089-092>099-272300-
...SOUTHEAST COLORADO...

CITY           SKY/WX    TMP DP  RH WIND       PRES   REMARKS
PUEBLO         FAIR      63  27  25 SE13G21   29.73F
LA JUNTA       FAIR      64  26  23 N12       29.75F
LAMAR          FAIR      66  27  23 NW14G24   29.72F
SPRINGFIELD      N/A     60  27  28 SE8       29.76F
$$




USA.gov is the U.S. government's official web portal to all federal, state and local government web resources and services.